Location: Unspecified
(0.0000°N, 0.0000°E)
Time: 11:22:22
(UTC+01:00)

NOSS 3-3 (A) - Visible Passes

Search period start: 27 January 2015 00:00
Search period end: 06 February 2015 00:00
Orbit: 967 x 1247 km, 63.4° (Epoch: 19 January)

Date Brightness Start Highest point End Pass type
(mag) Time Alt. Az. Time Alt. Az. Time Alt. Az.
27 Jan 4.6 21:08:07 10° NNW 21:15:53 77° WSW 21:23:40 10° SSE visible
28 Jan 4.4 20:23:38 10° NNW 20:31:16 63° ENE 20:38:58 10° SSE visible
28 Jan 6.8 22:17:36 10° WNW 22:22:25 16° WSW 22:26:39 10° SSW visible
29 Jan 5.0 19:39:46 10° N 19:46:35 35° ENE 19:53:36 10° SE visible
29 Jan 6.1 21:30:50 10° NW 21:37:34 31° WSW 21:44:04 10° S visible
30 Jan 5.2 20:45:17 10° NW 20:52:51 54° WSW 21:00:23 10° S visible
31 Jan 4.5 20:00:26 10° NNW 20:08:13 87° ENE 20:16:02 10° SSE visible
31 Jan 7.4 21:58:26 10° WSW 21:59:35 10° WSW 21:59:52 10° WSW visible
01 Feb 6.8 21:08:53 10° WNW 21:14:38 21° WSW 21:19:57 10° SSW visible
02 Feb 6.0 20:22:42 10° NW 20:29:51 38° WSW 20:36:51 10° S visible
03 Feb 7.0 06:13:13 10° SSE 06:16:37 16° ESE 06:20:24 10° E visible
03 Feb 5.0 19:37:28 10° NNW 19:45:11 68° WSW 19:52:53 10° SSE visible
04 Feb 7.4 20:47:45 10° W 20:51:46 14° WSW 20:55:05 10° SW visible
05 Feb 5.2 06:32:18 10° S 06:38:20 48° ESE 06:44:24 10° NE visible
05 Feb 6.8 20:00:28 10° WNW 20:06:53 27° WSW 20:13:00 10° SSW visible
